Location: *
(33.2784°S, 83.3506°E)
Time: 08:04:43
(UTC+00:00)

Daily predictions for brighter satellites

Satellite Brightness Start Highest point End
(mag) Time Altitude Azimuth Time Altitude Azimuth Time Altitude Azimuth
ATLAS 5 CENTAUR R/B 3.2 13:33:59 10° N 13:41:04 46° ENE 13:48:07 10° SE
Meteor 1-25 Rocket 4.4 13:42:10 10° N 13:47:32 53° E 13:52:59 10° SSE
CZ-4B R/B 4.4 13:47:53 10° SE 13:52:06 22° E 13:56:20 10° NE
Meteor 1-27 Rocket 4.2 13:47:35 10° S 13:53:22 50° E 13:59:07 10° NNE
BlueWalker 3 2.4 13:51:30 10° SSW 13:55:19 50° SE 13:59:01 10° ENE
IGS 5A 3.4 13:51:16 10° SSE 13:55:25 76° E 13:59:32 10° N
ADEOS 3.7 13:54:14 10° SSE 13:59:32 85° WSW 14:04:45 10° NNW
Cosmos 1461 2.9 13:58:05 10° N 14:01:41 45° ENE 14:05:23 10° SE
Cosmos 1943 Rocket 2.9 13:56:29 10° S 14:01:46 38° ESE 14:06:41 11° NE
Lacrosse 5 rocket 4.3 14:00:34 10° WSW 14:02:45 15° SW 14:04:56 10° S
Cosmos 1655 Rocket 4.1 13:58:31 10° S 14:04:58 85° E 14:11:16 10° N
SeaSat 1 4.1 14:02:31 10° N 14:06:50 31° WNW 14:11:13 10° SW
Cosmos 1302 Rocket 4.0 14:07:31 10° SSW 14:12:53 84° ESE 14:18:08 10° NNE
Cosmos 1140 Rocket 4.5 14:11:57 10° NNE 14:16:05 25° E 14:20:15 10° SE
Okean 1 3.3 14:16:47 10° S 14:20:46 64° E 14:24:15 13° NNE
Cosmos 2278 Rocket 2.6 14:16:42 10° SSW 14:22:21 64° WNW 14:27:57 10° N
GOES 2 Rocket 3.4 14:20:31 10° WNW 14:24:40 41° N 14:27:13 19° ENE
Cosmos 2237 Rocket 4.5 14:20:17 10° WNW 14:25:05 28° WSW 14:29:58 10° S
YAOGAN 1 3.8 14:26:23 10° S 14:30:33 44° WSW 14:34:39 10° NW
Landsat 7 3.7 14:25:55 10° SSE 14:30:43 85° ENE 14:35:26 10° NNW
NOSS 3-2 (A) 4.3 14:27:03 10° SSW 14:32:25 31° SE 14:35:40 17° E
Cosmos 1992 Rocket 4.0 14:34:34 10° S 14:39:49 68° ESE 14:43:09 22° NNE
Cosmos 1271 Rocket 3.0 14:37:51 23° NNE 14:39:54 46° E 14:43:38 10° SSE
Meteor 1-5 Rocket 4.3 14:34:57 10° N 14:40:55 78° E 14:46:57 10° S
Okean O Rocket 1.9 14:37:01 10° SSE 14:41:18 44° E 14:43:43 23° NNE
Cosmos 407 Rocket 4.1 14:41:31 23° NE 14:43:46 33° E 14:48:23 10° SE
ADEOS Rocket 3.2 14:40:12 10° SSE 14:46:45 55° E 14:51:42 15° N
Meteor 2-4 Rocket 3.9 14:41:58 10° S 14:47:30 54° E 14:50:25 26° NE
PAYLOAD B 4.4 14:43:13 10° S 14:48:46 75° WSW 14:54:15 10° NNW
MOS 1-B 4.3 14:45:57 10° SSE 14:51:49 71° ENE 14:57:37 10° N
CENTAUR R/B 2.1 14:47:34 10° SSW 14:52:41 55° ESE 14:54:44 31° ENE
OAO 3 Rocket 3.1 14:49:12 10° W 14:53:52 82° S 14:57:18 18° ESE
SPOT 1/Viking Rocket 3.6 14:48:48 10° SSE 14:53:57 60° E 14:57:23 21° N
Cosmos 1743 3.4 14:53:58 33° E 14:54:02 33° E 14:57:29 10° SSE
CZ-4 R/B 2.5 14:56:42 10° S 15:00:29 43° WSW 15:04:17 10° NW
BREEZE-M DEB (TANK) 2.3 14:56:06 10° WSW 15:01:49 70° NW 15:02:36 48° NNE
Cosmos 1151 Rocket 4.4 14:57:52 10° SSW 15:01:54 37° W 15:05:42 11° NNW
Meteor 1-14 Rocket 4.3 14:59:48 26° NNE 15:02:55 58° E 15:08:39 10° SSE
Cosmos 1328 Rocket 3.4 14:58:41 10° S 15:03:03 90° SE 15:04:52 35° N
Cosmos 1603 4.5 15:03:26 29° ENE 15:03:34 29° ENE 15:08:21 10° SE
CCE 1 Rocket 4.1 15:01:38 10° W 15:05:49 34° NNW 15:06:08 34° N
CSL-04 Rocket 3.7 15:01:26 10° SSE 15:06:54 65° ENE 15:10:01 26° N
Resurs 1-3 4.3 15:02:48 10° S 15:07:07 54° WSW 15:11:23 10° NNW
SJ-6B 4.2 15:03:58 10° S 15:07:27 36° WSW 15:10:51 10° NW
Cosmos 2084 Rocket 3.9 15:08:41 41° E 15:08:41 41° E 15:12:23 10° SE
Cosmos 1656 Rocket 4.5 15:03:15 10° S 15:08:13 34° ESE 15:09:42 29° E
USA 186 2.1 15:05:42 10° S 15:08:51 63° WSW 15:09:42 41° NW
Atlas Centaur 2 2.6 15:03:56 10° WNW 15:10:49 48° NNE 15:12:46 36° ENE
Cosmos 1386 Rocket 4.4 15:05:11 10° S 15:11:16 65° E 15:13:50 35° NNE
Meteor 1-18 Rocket 4.1 15:08:47 10° S 15:14:30 89° E 15:17:05 34° N
SL-16 R/B 3.8 15:11:47 10° NW 15:16:55 35° WSW 15:22:06 10° S
Cosmos 1408 Rocket 3.4 15:16:35 53° NNE 15:17:28 73° E 15:21:52 10° S
NOSS 3-4 (C) 4.1 15:09:22 10° NNW 15:17:53 67° ENE 15:26:12 10° SE
NOSS 3-4 (A) 4.2 15:09:19 10° NNW 15:17:54 68° ENE 15:26:13 10° SE
Resurs 01 Rocket 1.5 15:13:42 10° SSE 15:18:11 73° ENE 15:19:14 51° N
Cosmos 1536 4.2 15:19:33 25° ESE 15:19:33 25° ESE 15:21:52 10° SSE
CZ-4C R/B 2.0 15:13:55 10° SSW 15:18:47 49° SE 15:19:29 45° E
Okean-O 2.6 15:18:21 10° SSE 15:22:46 57° E 15:22:54 57° ENE
ATLAS 5 CENTAUR R/B 4.3 15:18:34 10° WNW 15:25:34 39° SW 15:32:18 10° SSE
CSL-04 Debris 4.3 15:20:57 10° S 15:26:22 74° WSW 15:30:05 21° NNW
H-2A ROCKET BODY 4.5 15:23:16 21° N 15:28:33 34° NE 15:57:13 10° ESE
S3M 4.1 15:24:54 22° NNW 15:29:13 79° W 15:35:40 10° S
CZ-4B R/B 4.4 15:27:33 10° S 15:32:41 41° WSW 15:37:53 10° NW
BlueWalker 3 4.3 15:31:11 10° W 15:33:20 14° WNW 15:33:35 14° NW
Cosmos 1943 3.1 15:30:57 28° NNW 15:34:07 88° ENE 15:39:53 10° SSE
Cosmos 1805 Rocket 3.7 15:39:20 59° SE 15:39:20 59° SE 15:43:10 10° SSE
Cosmos 1943 Rocket 4.0 15:40:45 10° SW 15:45:12 24° W 15:48:13 16° NW
Cosmos 1709 Rocket 3.9 15:38:53 10° S 15:45:13 71° E 15:46:27 56° NE
Cosmos 1743 Rocket 3.6 15:47:48 73° SSE 15:47:48 73° SSE 15:51:47 10° S
Cosmos 2369 Rocket 2.1 15:43:15 10° SSW 15:48:54 70° ESE 15:49:29 65° ENE
MOS 1 4.2 15:43:35 10° SSE 15:49:17 66° ENE 15:49:42 64° NE
NOSS 3-2 (C) 3.2 15:48:46 10° SSW 15:54:44 61° ESE 15:55:09 59° ESE
Meteor 1-11 Rocket 3.5 15:55:25 74° NNE 15:55:52 81° E 16:01:32 10° S
Cosmos 2263 4.3 15:50:30 10° SSW 15:56:05 58° ESE 15:56:20 57° E
Cosmos 1626 3.9 15:55:30 10° S 15:57:07 25° S 15:57:07 25° S
Cosmos 676 Rocket 4.4 16:02:54 50° SE 16:02:54 50° SE 16:06:59 10° SSE
SPOT 5 3.8 16:00:32 10° SSE 16:03:14 35° SE 16:03:14 35° SE
Cosmos 1763 Rocket 4.3 16:03:54 10° S 16:08:01 38° SE 16:08:01 38° SE
Meteor 2-9 Rocket 4.3 16:10:57 66° ESE 16:10:57 66° ESE 16:16:17 10° SSE
Ariane Rocket 4.0 16:09:58 10° SSE 16:13:18 36° SE 16:13:18 36° SE
Centaur D-1AR AC-36 3.9 15:58:30 10° WNW 16:15:39 35° NNW 16:15:39 35° NNW
Okean O Rocket 4.4 16:14:51 10° SW 16:17:08 14° WSW 16:19:23 10° W
Lacrosse 4 Rocket 3.5 16:22:47 20° SSE 16:22:47 20° SSE 16:24:08 10° SSE
NOSS 3-2 (A) 4.3 16:18:05 10° SW 16:23:02 30° WNW 16:23:03 30° WNW
Cosmos 2228 Rocket 4.3 16:23:10 10° S 16:26:12 40° SSE 16:26:12 40° SSE
Meteor 1-13 Rocket 4.5 16:31:06 10° SSW 16:36:12 62° WSW 16:36:12 62° WSW
Terra 3.0 16:33:27 10° SSE 16:36:18 36° SSE 16:36:18 36° SSE
USA 238 DEB 3.4 16:35:01 10° SSW 16:41:18 81° S 16:41:18 81° S
USA 238 3.4 16:35:02 10° SSW 16:41:21 81° S 16:41:21 81° S
CENTAUR R/B 4.4 16:40:44 10° W 16:41:54 11° W 16:41:54 11° W
Longmarch 3A Rocket 4.2 16:16:50 10° W 16:43:13 47° NNW 16:43:18 47° NNW
H-2A R/B 3.7 16:45:41 32° SSW 16:45:41 32° SSW 16:48:05 10° SSW
Cosmos 540 Rocket 4.4 16:40:31 10° S 16:44:11 44° SSE 16:44:11 44° SSE
Cosmos 2154 Rocket 4.3 16:47:28 10° S 16:53:03 59° SE 16:53:03 59° SE
Cosmos 2074 Rocket 4.1 16:49:36 10° S 16:55:16 73° S 16:55:16 73° S
Atlas Centaur 2 4.2 16:53:19 10° W 16:55:10 19° WNW 16:55:10 19° WNW
ERS-1 Rocket 4.1 17:04:41 10° S 17:08:33 39° SW 17:08:33 39° SW
Nadezhda 1 Rocket 4.3 17:15:13 66° SW 17:15:13 66° SW 17:20:59 10° S
Cosmos 1833 Rocket 3.8 18:03:33 40° S 18:03:33 40° S 18:07:06 10° SSE
ATLAS 2AS CENTAUR R/B 3.0 18:24:19 58° S 18:24:19 58° S 18:30:02 10° SSE
Cosmos 2082 Rocket 3.7 18:28:13 30° SE 18:28:13 30° SE 18:31:18 10° SSE
SJ 16-02 3.8 18:30:29 20° S 18:30:29 20° S 18:31:55 10° S
Nadezhda 3 Rocket 4.4 18:56:55 60° SSW 18:56:55 60° SSW 19:02:07 10° S
ADEOS II 3.9 18:55:41 23° ESE 18:55:48 23° ESE 18:59:52 10° SSE
USA 215 3.4 19:06:41 68° ESE 19:07:00 69° SE 19:13:34 10° SW
Cosmos 1697 Rocket 3.9 19:01:53 10° SSW 19:05:17 37° SSW 19:05:17 37° SSW
IDEFIX/ARIANE 42P 3.6 19:09:54 42° SSE 19:09:54 42° SSE 19:13:48 10° S
NOSS 3-1 (C) 4.5 19:03:51 10° SSW 19:09:20 34° SE 19:09:57 33° ESE
Resurs 1-4 Rocket 3.1 19:10:38 44° SSE 19:10:38 44° SSE 19:14:34 10° S
Cosmos 1934 Rocket 4.5 19:04:16 10° S 19:10:03 55° ESE 19:10:03 55° ESE
CZ-2D R/B 2.8 19:24:21 54° SSE 19:24:21 54° SSE 19:28:41 10° S
COSMOS 2406 4.1 19:29:53 43° SSW 19:29:53 43° SSW 19:34:22 10° S
Cosmos 1980 Rocket 2.8 19:31:16 10° SSW 19:35:33 52° SSW 19:35:33 52° SSW
Cosmos 2369 4.1 19:34:25 10° SSW 19:39:03 59° S 19:39:03 59° S
FENGYUN 3A 4.4 19:48:17 45° E 19:48:43 46° ESE 19:53:54 10° S
ATLAS 3B R/B 3.0 19:42:37 10° SSW 19:48:47 54° ESE 19:51:09 35° ENE
Cosmos 1953 4.4 20:08:04 22° SSW 20:08:04 22° SSW 20:09:43 10° S
Cosmos 2082 Rocket 3.9 20:10:02 20° WSW 20:10:09 20° WSW 20:14:20 10° S
ALOS 3.2 20:10:24 42° E 20:10:46 43° ESE 20:15:13 10° S
CZ-2C R/B 3.8 20:12:22 41° ENE 20:13:54 53° ESE 20:19:28 10° S
Cosmos 2278 4.0 20:10:23 10° SSW 20:16:05 65° ESE 20:17:28 49° NE
Sich 1 Rocket 4.5 20:20:34 45° E 20:20:34 45° E 20:24:57 10° SSE
CZ-4 R/B 4.0 20:23:14 68° ESE 20:23:14 68° ESE 20:27:52 10° S
CZ-3 Stage 3 4.1 20:24:51 53° WNW 20:26:40 74° N 21:03:14 10° E
Cosmos 304 Rocket 4.1 20:29:12 57° SW 20:29:12 57° SW 20:33:26 10° S
Cosmos 1867 3.9 20:24:07 10° SW 20:28:17 51° WSW 20:28:17 51° WSW
Cosmos 332 Rocket 4.0 20:29:42 63° ENE 20:29:45 63° ENE 20:34:34 10° SSE
Thor Agena Rocket 3.8 20:30:05 49° NE 20:31:17 65° ESE 20:36:26 10° S
Cosmos 2360 Rocket 4.2 20:29:43 10° S 20:34:30 27° ESE 20:39:15 10° ENE
ADEOS II 3.2 20:36:34 31° WSW 20:36:34 31° WSW 20:40:01 10° SSW
Cosmos 1825 4.0 20:35:42 10° SSW 20:37:09 22° SSW 20:37:09 22° SSW
In-Cosmos 22 Rocket 4.4 20:33:49 10° S 20:39:40 69° E 20:41:57 37° NNE
Okean 2 Rocket 3.1 20:42:20 78° ENE 20:42:23 78° E 20:46:53 10° S
Cosmos 1727 Rocket 4.0 20:41:48 53° WNW 20:42:36 58° W 20:48:47 10° S
Meteor 1-11 4.4 20:38:32 10° S 20:44:21 73° E 20:46:49 36° NNE
Lacrosse 5 rocket 2.6 20:40:59 10° SSW 20:44:25 35° SE 20:47:55 10° ENE
Cosmos 1455 4.1 20:49:35 20° SW 20:49:35 20° SW 20:51:12 10° SSW
Cosmos 2123 Rocket 4.2 20:45:46 34° NNE 20:48:32 66° E 20:54:45 10° SSE
Resurs 1-4 Rocket 4.3 20:51:41 12° WSW 20:51:41 12° WSW 20:52:24 10° WSW
ATLAS CENTAUR R/B 1.4 20:45:27 10° SSW 20:49:41 81° SSW 20:49:41 81° SSW
Cosmos 2322 Rocket 2.9 20:46:07 10° S 20:51:39 53° ESE 20:57:06 10° NE
Envisat 3.9 20:49:52 14° NE 20:53:57 48° ESE 20:58:53 10° S
Cosmos 1833 4.2 20:55:02 52° NNW 20:56:31 86° WSW 21:02:21 10° SSE
NOSS 3-1 (A) 2.9 20:53:46 10° SW 20:59:35 65° WNW 21:00:49 49° N
Cosmos 2333 Rocket 3.8 20:55:04 10° S 21:00:16 35° ESE 21:05:25 10° NE
Hubble Space Telescope 3.1 21:02:37 13° NE 21:02:37 13° NE 21:03:33 10° ENE
Okean 1 Rocket 3.3 21:00:13 49° NNE 21:01:20 70° E 21:05:50 10° SSE
USA 281 4.0 20:55:46 10° NE 21:02:04 51° ESE 21:08:24 10° S
Cosmos 1898 Rocket 3.4 21:02:01 54° NW 21:03:10 73° WSW 21:08:29 10° SSE
METEOR-M 4.1 21:05:28 27° NNE 21:08:30 89° WNW 21:13:56 10° SSW
Cosmos 2173 Rocket 3.8 21:04:47 10° S 21:10:55 74° W 21:14:12 29° N
Cosmos 1937 Rocket 3.4 21:11:41 44° NNW 21:13:21 82° WSW 21:18:33 10° SSE
IRS-1D 3.5 21:10:43 28° N 21:13:35 81° WNW 21:18:58 10° SSW
SL-16 R/B 2.2 21:08:29 10° SSW 21:14:06 60° WNW 21:16:56 29° N
Cosmos 1536 Rocket 3.5 21:09:56 10° S 21:14:29 82° W 21:16:01 41° N
CZ-2C R/B 4.2 21:10:38 10° SE 21:15:34 32° E 21:20:30 10° NNE
H-2A R/B 3.2 20:59:13 10° W 21:18:39 44° NNW 21:22:36 10° NE
Cosmos 1441 Rocket 3.4 21:18:56 49° W 21:19:04 49° W 21:22:51 10° S
Tiangong -0.7 21:18:38 28° SW 21:19:11 30° SSW 21:22:02 10° SE
Cosmos 2151 Rocket 4.4 21:20:19 34° W 21:20:40 35° W 21:24:52 10° SSW
Cosmos 2084 3.5 21:19:56 48° NW 21:21:09 81° WSW 21:25:50 10° SSE
Cosmos 2100 Rocket 4.1 21:16:14 10° SSW 21:22:17 56° W 21:25:24 28° NNW
Cosmos 1346 Rocket 2.9 21:20:56 36° NNE 21:22:21 67° E 21:26:14 10° SSE
Cosmos 1802 Rocket 3.9 21:16:45 10° S 21:23:11 81° W 21:28:22 16° N
COBE Rocket 3.7 21:22:00 32° N 21:24:09 69° W 21:28:50 10° SSW
USA 32 4.4 21:22:09 16° N 21:26:18 64° E 21:31:32 10° S
Cosmos 372 Rocket 4.3 21:32:14 32° NW 21:34:13 49° WSW 21:39:12 10° S
Cosmos 2061 Rocket 4.1 21:29:07 10° S 21:35:24 79° E 21:41:37 10° N
ATLAS 3B R/B 3.7 21:34:24 10° WSW 21:38:15 20° W 21:38:15 20° W
Cosmos 1725 Rocket 4.0 21:34:10 10° S 21:40:33 73° W 21:46:50 10° N
Delta 128 4.0 21:42:03 30° NW 21:43:42 41° N 21:47:56 10° ENE
SL-27 R/B 3.0 21:43:51 31° W 21:44:03 31° WSW 21:46:51 10° S
CZ-2C R/B 2.8 21:41:30 21° NNW 21:44:38 45° W 21:49:36 10° SSW
Meteor 1-28 Rocket 3.0 21:43:09 10° S 21:46:49 79° WSW 21:48:51 25° NNW
ALOS 4.1 21:48:46 14° W 21:48:46 14° W 21:50:47 10° WSW
IRIDIUM 104 4.4 21:44:51 10° S 21:50:02 59° W 21:54:27 14° NNW
Cosmos 1455 Rocket 3.0 21:46:58 18° N 21:50:14 85° W 21:54:39 10° S
Cosmos 292 Rocket 3.9 21:53:59 21° NW 21:57:10 60° WSW 22:02:00 10° S
SL-16 R/B 2.5 21:58:59 10° S 22:05:13 78° WSW 22:11:23 10° NNW
ARIANE 5 R/B 3.4 22:02:24 10° NNE 22:07:29 55° ESE 22:12:35 10° S
FAST Rocket 4.3 22:04:17 10° SSW 22:07:48 55° W 22:10:10 12° N
CBERS-1 4.1 22:03:45 10° N 22:08:43 53° W 22:13:46 10° SSW
YAOGAN 6 3.8 22:11:48 18° WNW 22:12:47 20° W 22:15:21 10° SW
Cosmos 2360 Rocket 2.8 22:13:22 10° SW 22:18:27 35° WNW 22:23:32 10° NNW
Fregat R/B Cluster 11 4.2 22:17:45 10° SSW 22:20:35 59° ESE 22:24:19 10° NE
Lacrosse 5 rocket 2.6 22:20:19 10° W 22:22:43 16° WNW 22:25:08 10° NNW
Cosmos 2219 Rocket 2.1 22:19:22 10° SSW 22:24:59 70° WNW 22:30:32 10° N
Cosmos 1484 Rocket 3.0 22:22:30 10° N 22:26:03 42° W 22:29:37 10° SSW
Cosmos 1544 Rocket 3.5 22:22:30 10° N 22:26:50 85° W 22:31:14 10° S
Cosmos 921 Rocket 3.4 22:24:36 10° SSW 22:28:33 40° W 22:32:27 10° N
CZ-2C R/B 0.8 22:28:33 13° NW 22:30:42 41° NNE 22:33:13 10° E
Cosmos 1242 Rocket 4.1 22:29:03 10° SW 22:31:05 15° W 22:33:05 10° NW
Cosmos 2322 Rocket 3.6 22:31:42 10° WSW 22:35:08 17° W 22:38:32 10° NW
Cosmos 1939 Rocket 2.9 22:33:10 10° NNE 22:36:59 82° ESE 22:40:51 10° S
USA 229 DEB 4.2 22:32:40 10° SW 22:37:57 29° WNW 22:42:59 10° NNW
USA 229 4.2 22:32:43 10° SW 22:38:01 29° WNW 22:43:05 10° NNW
Hubble Space Telescope 1.7 22:37:54 10° NW 22:41:35 33° N 22:45:15 10° ENE
Cosmos 1626 Rocket 3.9 22:37:11 10° S 22:41:42 73° E 22:46:08 10° NNE
Cosmos 2333 Rocket 3.2 22:39:40 10° SW 22:44:17 26° WNW 22:48:53 10° NNW
COSMOS 2428 2.9 22:38:55 10° SSW 22:44:40 85° ESE 22:50:21 10° NNE
IRS-1C 4.3 22:40:12 10° N 22:45:26 55° W 22:50:44 10° SSW
USA 281 4.2 22:41:29 10° NNW 22:46:41 25° WNW 22:51:56 10° SW
